Weather History for Seretse Khama, Botswana

Change the Weather History Date:

Friday, December 6, 2013

  Actual Average Record
Temperature  
Mean Temperature 74 °F -  
Max Temperature 80 °F 86 °F 95 °F (1997)
Min Temperature 68 °F 64 °F 57 °F (2002)
Cooling Degree Days 9    
Growing Degree Days 24 (Base 50)    
Moisture  
Dew Point 59 °F    
Average Humidity 62    
Maximum Humidity 78    
Minimum Humidity 45    
Precipitation  
Precipitation 0.00 in - - ()
Sea Level Pressure  
Sea Level Pressure 30.08 in    
Wind  
Wind Speed 10 mph ()    
Max Wind Speed 17 mph    
Max Gust Speed -    
Visibility 6.2 miles    
Events      
Averages and records for this station are not official NWS values.
T = Trace of Precipitation, MM = Missing Value Source: Averaged Metar Reports

Daily Weather History Graph

Daily Weather History Graph

Search for Another Location

Airport:

Trip Planner

Search our weather history database for the weather conditions in past years. The results will help you decide how hot, cold, wet, or windy it might be!

Date:

Astronomy

Dec. 06, 2013 Rise Set
Actual Time 5:19 AM CAT 6:55 PM CAT
Civil Twilight 4:54 AM CAT 7:20 PM CAT
Nautical Twilight 4:23 AM CAT 7:51 PM CAT
Astronomical Twilight 3:51 AM CAT 8:23 PM CAT
Moon 8:51 AM CAT (12/6) 10:13 PM CAT (12/6)
Length of Visible Light 14h 26m
Length of Day
13h 35m
Waxing Crescent, 16% of the Moon is Illuminated
Dec 6
Waxing Crescent
Dec 9
First Quarter
Dec 17
Full
Dec 25
Last Quarter
Jan 1
New

Hourly Weather History & Observations

Time (CAT) Temp. Heat Index Dew Point Humidity Pressure Visibility Wind Dir Wind Speed Gust Speed Precip Events Conditions
12:00 AM 71.6 °F - 62.6 °F 73% 30.09 in 6.2 mi ENE 13.8 mph - N/A   Mostly Cloudy
1:00 AM 71.6 °F - 62.6 °F 73% 30.09 in 6.2 mi ENE 15.0 mph - N/A   Partly Cloudy
2:00 AM 69.8 °F - 60.8 °F 73% 30.06 in 6.2 mi NE 12.7 mph - N/A   Partly Cloudy
3:00 AM 68.0 °F - 60.8 °F 78% 30.06 in 6.2 mi ENE 11.5 mph - N/A   Partly Cloudy
4:00 AM 68.0 °F - 60.8 °F 78% 30.06 in 6.2 mi ENE 10.4 mph - N/A   Mostly Cloudy
5:00 AM 68.0 °F - 60.8 °F 78% 30.06 in 6.2 mi ENE 10.4 mph - N/A   Overcast
6:00 AM 68.0 °F - 59.0 °F 73% 30.09 in 6.2 mi NNE 8.1 mph - N/A   Overcast
7:00 AM 68.0 °F - 59.0 °F 73% 30.09 in 6.2 mi NE 9.2 mph - N/A   Overcast
8:00 AM 69.8 °F - 59.0 °F 68% 30.12 in 6.2 mi NE 9.2 mph - N/A   Overcast
9:00 AM 69.8 °F - 59.0 °F 68% 30.12 in 6.2 mi NE 9.2 mph - N/A   Overcast
10:00 AM 73.4 °F - 59.0 °F 61% 30.12 in 6.2 mi ENE 12.7 mph - N/A   Mostly Cloudy
11:00 AM 73.4 °F - 59.0 °F 61% 30.12 in 6.2 mi NE 10.4 mph - N/A   Mostly Cloudy
12:00 PM 77.0 °F - 59.0 °F 54% 30.09 in 6.2 mi ENE 12.7 mph - N/A   Mostly Cloudy
1:00 PM 77.0 °F - 59.0 °F 54% 30.09 in 6.2 mi ENE 13.8 mph - N/A   Scattered Clouds
2:00 PM 80.6 °F 80.8 °F 57.2 °F 45% 30.06 in 6.2 mi ENE 13.8 mph - N/A   Scattered Clouds
3:00 PM 78.8 °F - 57.2 °F 47% 30.04 in 6.2 mi ENE 17.3 mph - N/A   Scattered Clouds
4:00 PM 78.8 °F - 57.2 °F 47% 30.04 in 6.2 mi ENE 13.8 mph - N/A   Scattered Clouds
5:00 PM 77.0 °F - 57.2 °F 50% 30.01 in 6.2 mi ENE 15.0 mph - N/A   Mostly Cloudy
6:00 PM 77.0 °F - 57.2 °F 50% 30.04 in 6.2 mi ENE 11.5 mph - N/A   Mostly Cloudy
7:00 PM 75.2 °F - 57.2 °F 53% 30.06 in 6.2 mi ENE 9.2 mph - N/A   Scattered Clouds
8:00 PM 75.2 °F - 57.2 °F 53% 30.06 in 6.2 mi ENE 13.8 mph - N/A   Scattered Clouds
9:00 PM 73.4 °F - 59.0 °F 61% 30.09 in 6.2 mi East 6.9 mph - N/A   Scattered Clouds
10:00 PM 71.6 °F - 59.0 °F 64% 30.09 in - East 6.9 mph - N/A   Clear
11:00 PM 71.6 °F - 59.0 °F 64% 30.09 in - ENE 6.9 mph - N/A   Clear